Theta_e
325 323 323 324 324 323 323 321 322 322 322 321 320 320 319 319 317 317 319 319 321 321 321 318 315 314 313 313 314 312 312 311 314 315 314 312 309 308
321 321 322 322 323 324 324 323 323 323 324 322 322 322 321 321 320 320 320 320 319 319 317 316 316 314 313 313 312 312 311 309 311 312 312 310 308 307
320 320 321 321 322 322 321 321 320 321 321 321 319 318 317 317 317 318 317 320 317 318 317 315 314 313 312 311 311 312 311 311 311 311 310 308 308 306
321 322 321 321 316 312 311 310 310 310 310 311 311 312 311 318 315 315 314 315 316 316 316 315 314 312 310 310 310 308 308 308 308 308 307 307 306 305
321 320 313 310 309 309 308 308 308 307 307 307 308 310 312 312 312 314 315 314 315 314 315 314 313 311 309 309 307 307 306 306 307 306 306 305 304 303
312 310 309 308 308 308 307 307 307 306 305 306 306 308 309 311 312 311 314 314 314 313 312 312 312 309 308 307 307 306 306 305 305 305 304 302 301 297
309 309 309 308 308 308 307 306 305 305 304 304 305 306 307 308 309 311 313 313 312 312 311 309 309 307 306 306 305 304 304 304 304 303 302 298 292 290
309 309 308 308 307 307 306 305 304 304 304 303 304 305 306 308 309 309 310 311 309 311 310 308 307 307 305 304 303 302 301 301 301 299 296 292 290 289
308 308 307 307 306 306 305 304 304 303 303 303 304 305 306 307 307 308 309 309 309 309 309 307 307 305 304 303 302 300 299 295 291 290 289 290 289 289
308 307 307 306 306 306 305 304 303 303 303 303 303 304 304 305 305 306 306 305 305 305 306 305 305 305 303 302 300 299 293 290 289 289 288 289 288 290
308 307 306 306 305 305 304 303 303 302 302 302 302 302 303 303 304 304 304 304 304 305 304 303 303 303 302 300 296 291 289 289 288 288 288 288 290 290
307 307 306 305 304 303 301 300 299 299 299 300 301 301 301 301 301 302 302 302 302 302 302 302 301 300 298 297 292 289 288 288 288 289 290 290 290 291
307 306 305 304 302 301 301 299 299 298 298 300 300 298 297 296 296 298 299 299 299 299 299 296 297 297 294 289 289 288 288 288 288 289 290 291 291 291
306 305 304 303 302 301 301 300 299 298 298 297 295 293 292 290 288 288 288 289 290 291 292 292 290 288 288 288 288 289 288 288 289 290 290 290 291 291
303 303 302 302 302 300 300 299 298 298 296 292 288 287 287 287 287 287 287 287 287 287 287 287 287 287 287 287 287 289 289 289 290 290 290 291 291 291
300 300 301 301 300 299 299 298 298 297 293 288 287 287 286 287 286 286 286 286 286 286 286 286 286 286 286 287 288 288 289 290 290 290 290 290 291 291
300 301 300 300 299 298 298 297 297 295 291 288 287 286 286 286 286 286 286 286 286 286 285 285 286 286 286 286 288 289 289 289 290 290 290 290 290 290
299 298 298 298 298 298 298 297 297 296 292 288 287 286 286 286 286 286 286 286 286 286 285 285 285 286 286 287 287 288 288 289 289 289 289 289 289 289
298 298 298 298 298 297 297 296 296 295 293 291 288 286 286 286 286 286 286 286 286 286 285 285 286 286 286 287 288 289 289 289 288 288 289 289 289 289
298 297 297 298 297 297 296 295 295 295 294 293 291 288 286 286 286 286 286 286 286 286 286 286 286 286 286 286 286 288 288 289 289 289 289 289 289 289
297 297 296 296 297 296 296 294 295 295 294 294 294 292 287 286 286 286 286 286 286 286 286 286 286 285 285 286 288 289 288 288 289 289 289 289 290 290
298 297 296 296 296 296 295 294 293 294 294 294 294 293 292 287 289 292 291 287 286 286 286 285 285 285 285 286 287 288 288 288 288 288 289 289 289 289
296 296 295 294 294 295 294 294 294 294 294 293 293 293 293 292 289 287 287 289 288 287 286 286 285 285 285 285 286 286 286 286 286 287 288 288 288 288
Wind_Speed
11 7 5 7 6 5 3 4 4 6 12 13 12 11 12 14 13 17 20 19 21 18 19 19 16 15 13 11 11 11 10 9 11 17 15 13 8 8
8 7 7 8 8 9 10 11 9 13 16 16 17 14 18 19 19 19 19 22 17 20 18 19 18 15 14 15 12 14 14 14 17 20 14 11 9 11
10 11 13 13 13 13 12 14 15 16 19 24 23 23 23 22 22 20 20 19 20 22 20 19 18 18 18 16 15 15 15 13 15 12 11 12 12 11
13 14 13 12 11 11 11 11 12 14 19 21 22 23 22 20 23 22 22 18 21 22 19 20 19 17 15 15 16 16 17 17 17 15 13 14 14 11
13 12 10 9 10 10 11 12 13 14 17 20 20 20 19 19 19 22 21 22 21 23 20 21 20 16 14 17 17 17 18 18 19 17 15 14 14 12
8 7 7 8 10 11 13 14 15 16 17 17 18 18 18 19 20 20 22 24 25 24 22 23 20 16 16 17 18 17 16 15 17 16 15 14 14 13
7 6 7 10 13 15 15 16 16 18 18 18 17 17 19 20 20 21 23 23 25 25 25 23 18 14 17 17 17 16 15 16 17 16 16 16 14 14
5 6 8 10 13 16 16 17 17 16 18 16 14 16 17 18 20 21 24 27 27 25 23 22 18 18 16 17 18 17 17 17 18 18 18 18 16 14
5 5 8 12 14 16 17 18 16 15 15 15 13 14 15 16 16 19 21 22 24 22 18 22 18 18 18 19 19 18 18 18 17 17 18 18 17 16
7 8 10 12 12 15 17 17 14 14 15 14 13 13 14 13 15 15 15 17 19 20 18 16 16 18 18 20 21 20 19 17 16 16 17 17 17 17
11 12 13 14 14 16 17 16 12 13 14 13 13 13 13 14 14 14 13 14 16 17 18 18 17 18 18 20 19 19 19 17 15 16 16 16 17 17
13 15 13 15 17 14 15 15 13 13 13 13 13 12 12 12 12 13 14 15 16 16 17 18 18 15 14 20 21 20 19 16 16 17 17 17 17 18
14 14 14 12 11 10 13 14 15 13 14 13 11 11 10 10 10 10 11 12 13 15 12 11 15 16 19 14 11 20 20 17 17 17 18 17 17 16
14 13 12 12 13 15 15 15 16 13 11 9 8 9 11 11 11 11 11 12 14 15 16 17 17 15 15 18 15 14 20 19 19 18 18 17 17 16
13 14 13 13 14 12 13 14 14 12 10 9 9 10 11 12 13 13 13 13 14 15 16 17 18 17 16 16 16 14 16 20 20 19 19 18 17 17
12 13 12 14 14 12 13 13 13 12 10 10 10 12 12 12 12 11 10 11 12 12 12 13 15 16 17 16 16 15 14 12 15 18 18 18 18 19
13 12 13 15 15 13 13 14 13 12 11 11 12 13 12 12 11 11 10 10 11 10 11 12 13 15 16 17 17 16 17 18 18 16 16 17 17 17
12 12 12 13 13 13 13 14 14 13 13 14 13 13 13 12 12 12 11 10 10 10 11 11 12 13 16 15 16 18 20 20 19 20 19 18 15 16
14 14 12 12 12 13 14 14 14 15 17 18 15 15 14 14 13 12 12 11 11 12 11 11 12 13 13 13 12 13 17 17 18 18 16 16 12 13
17 17 16 14 14 15 15 17 16 15 17 18 18 16 15 15 15 14 13 13 12 14 14 14 13 10 10 12 12 12 13 14 15 15 15 15 13 13
18 16 16 15 15 15 16 17 17 17 18 18 18 19 18 17 16 15 14 15 15 17 16 15 9 12 15 17 18 14 14 14 14 15 16 17 16 17
20 17 16 16 16 16 17 18 19 19 19 19 20 19 21 21 22 21 19 17 18 18 17 15 14 18 20 21 21 19 17 18 18 18 20 19 18 15
18 18 16 16 15 15 16 17 17 17 17 19 20 20 21 24 22 22 22 22 21 20 20 19 17 20 23 23 23 23 22 20 21 24 24 22 22 22
Wind_Direction
245 246 261 256 255 266 257 283 296 278 293 291 298 285 291 290 287 275 271 270 271 275 269 265 262 271 281 279 273 280 276 256 231 218 228 266 261 268
200 224 255 266 267 271 284 284 270 256 262 280 267 260 264 270 273 277 267 271 271 275 256 259 264 269 269 263 259 263 270 265 236 239 234 249 266 275
233 252 270 279 277 276 272 267 267 264 267 268 271 271 268 268 272 268 273 262 268 271 260 254 263 266 264 263 253 251 262 253 238 238 250 254 264 260
258 272 275 280 280 286 290 286 280 276 273 273 274 273 273 262 268 261 264 265 262 259 258 256 260 264 257 251 250 246 252 253 253 252 253 258 255 253
264 259 260 267 279 293 299 302 306 304 297 288 281 277 273 275 273 263 255 264 255 252 255 257 256 261 251 250 252 249 251 249 250 251 247 244 248 252
240 252 266 281 289 296 304 307 311 315 312 299 283 279 274 269 265 264 255 262 255 247 247 254 256 257 257 253 254 252 248 242 243 240 241 246 247 245
227 256 284 299 303 305 305 307 311 318 315 318 305 281 274 274 274 269 266 260 255 249 249 245 249 263 262 253 248 241 241 239 238 243 247 248 243 243
261 284 300 305 307 304 302 301 305 313 312 315 307 292 281 272 266 262 264 256 246 248 254 247 251 265 258 250 245 243 243 245 247 246 245 244 239 232
251 290 308 322 323 311 303 294 295 298 295 295 301 298 290 281 272 265 258 256 253 249 250 240 251 259 255 245 244 248 249 251 246 241 241 236 228 217
269 289 298 304 310 313 303 287 284 289 290 291 293 291 286 287 281 276 266 254 249 246 243 249 262 260 251 246 247 251 252 250 245 234 232 226 215 208
268 274 278 287 298 309 309 290 280 278 282 287 291 291 287 281 278 280 268 254 243 245 249 254 261 251 246 248 247 248 249 250 240 223 221 210 208 214
263 276 281 294 301 315 322 315 302 296 294 292 290 292 290 285 277 268 256 252 250 252 255 250 249 244 249 251 248 244 242 239 225 215 214 212 216 223
272 279 286 290 285 297 316 303 296 294 290 288 285 284 284 283 281 273 260 253 249 244 248 243 248 247 242 254 256 238 235 227 218 215 219 221 225 227
277 270 273 282 277 283 299 298 297 292 288 286 281 279 277 276 275 270 263 257 254 252 250 249 250 251 251 249 248 248 229 220 217 218 227 228 231 234
273 269 265 275 278 286 303 302 302 302 289 278 279 285 285 283 278 272 266 261 257 254 251 249 247 246 246 245 243 243 223 221 223 228 232 234 234 240
260 261 267 273 279 287 298 293 293 283 280 279 282 283 284 282 277 272 268 263 259 255 251 246 245 243 241 241 237 230 231 215 228 230 233 237 243 250
256 266 269 272 277 285 283 279 286 282 277 278 281 282 282 283 279 272 266 263 261 256 253 248 246 244 243 241 237 232 232 235 239 239 238 241 245 249
261 265 267 271 276 280 275 276 278 283 272 272 275 279 281 281 280 275 271 267 262 258 257 254 251 253 252 248 245 240 241 242 242 243 244 246 245 249
270 277 275 274 272 275 278 278 276 276 270 268 271 275 274 274 277 275 271 270 266 262 257 260 257 251 247 247 244 241 240 239 239 242 243 245 243 245
278 274 274 275 272 274 276 277 272 267 268 264 262 269 268 269 273 275 272 272 270 263 256 260 257 259 260 258 244 244 239 236 239 241 244 249 249 244
270 265 275 271 272 273 274 275 275 268 263 264 263 263 263 262 267 274 275 271 267 262 263 267 276 254 247 250 252 248 247 244 243 241 247 253 258 265
272 269 266 264 267 271 272 273 273 267 266 268 264 267 259 259 261 266 269 274 270 272 270 263 251 255 257 258 261 260 252 251 251 249 251 252 257 265
262 261 261 260 265 275 278 274 273 273 271 268 268 266 263 256 260 263 263 262 269 268 267 267 259 256 260 261 264 265 262 257 253 254 255 258 261 261